Location: Staunton
(38.1490°N, 79.0720°W)
Time: 15:35:52
(UTC-05:00)

ISS - Visible Passes

Search period start: 24 November 2017 00:00
Search period end: 04 December 2017 00:00
Orbit: 401 x 407 km, 51.6° (Epoch: 25 November)

Date Brightness Start Highest point End Pass type
(mag) Time Alt. Az. Time Alt. Az. Time Alt. Az.
24 Nov -1.6 18:41:35 10° S 18:42:42 16° S 18:42:42 16° S visible
25 Nov -1.5 17:50:59 10° SSE 17:52:03 11° SE 17:52:55 10° ESE visible
25 Nov -0.8 19:24:51 10° WSW 19:25:36 16° WSW 19:25:36 16° WSW visible
26 Nov -3.8 18:32:32 10° SW 18:35:44 60° SE 18:35:44 60° SE visible
27 Nov -2.6 17:40:38 10° SSW 17:43:29 28° SE 17:45:46 14° ENE visible
27 Nov -1.2 19:17:00 10° W 19:18:26 20° WNW 19:18:26 20° WNW visible
28 Nov -3.3 18:24:14 10° WSW 18:27:25 51° NW 18:28:22 36° NNE visible
29 Nov -3.8 17:31:45 10° SW 17:35:01 78° SE 17:38:14 10° NE visible
29 Nov -1.1 19:09:37 10° WNW 19:10:53 15° NW 19:10:53 15° NW visible
30 Nov -2.0 18:16:26 10° W 18:19:12 25° NNW 18:20:41 18° N visible
01 Dec -2.9 17:23:31 10° WSW 17:26:38 41° NW 17:29:47 10° NE visible
01 Dec -0.8 19:02:48 10° NW 19:03:03 10° NNW 19:03:03 10° NNW visible
02 Dec -1.4 18:09:06 10° WNW 18:11:04 15° NNW 18:12:43 11° N visible
